This is the latest recevied weather packets stored in our database for station/object KD5FHA. If no packets are shown the sender has not sent any weather packets the latest 10 day(s).
| Time | Temp. | Humidity | Pressure | Rain* | Wind** | Luminosity | Snow |
|---|---|---|---|---|---|---|---|
| 1787791057 | 35° C | 48% | 1012.8 hPa | 0 mm | - | 37 W/m² | - |
| 1787790753 | 35° C | 48% | 1013 hPa | 0 mm | - | 52 W/m² | - |
| 1787790452 | 35° C | 48% | 1013 hPa | 0 mm | - | 63 W/m² | - |
| 1787790149 | 35° C | 48% | 1013.2 hPa | 0 mm | - | 62 W/m² | - |
| 1787789844 | 35° C | 48% | 1013.1 hPa | 0 mm | - | 66 W/m² | - |
| 1787789544 | 35° C | 48% | 1013.2 hPa | 0 mm | - | 71 W/m² | - |
| 1787789242 | 35.56° C | 47% | 1013.4 hPa | 0 mm | - | 80 W/m² | - |
| 1787788938 | 36.11° C | 45% | 1013.3 hPa | 0 mm | - | 91 W/m² | - |
| 1787788635 | 36.67° C | 45% | 1013.2 hPa | 0 mm | - | 90 W/m² | - |
| 1787788335 | 36.67° C | 45% | 1013.6 hPa | 0 mm | - | 65 W/m² | - |
| 1787788031 | 36.67° C | 44% | 1013.4 hPa | 0 mm | - | 66 W/m² | - |
| 1787787726 | 36.67° C | 44% | 1013.6 hPa | 0 mm | - | 68 W/m² | - |
| 1787787424 | 36.67° C | 43% | 1013.7 hPa | 0 mm | - | 82 W/m² | - |
| 1787787119 | 36.67° C | 43% | 1013.5 hPa | 0 mm | - | 126 W/m² | - |
| 1787786819 | 36.67° C | 43% | 1013.4 hPa | 0 mm | - | 138 W/m² | - |
| 1787786514 | 37.78° C | 42% | 1013.4 hPa | 0 mm | - | 143 W/m² | - |
| 1787786209 | 37.22° C | 42% | 1013.2 hPa | 0 mm | - | 235 W/m² | - |
| 1787785905 | 36.67° C | 43% | 1013.3 hPa | 0 mm | - | 154 W/m² | - |
| 1787785601 | 36.67° C | 43% | 1013.2 hPa | 0 mm | - | 87 W/m² | - |
| 1787785301 | 36.67° C | 43% | 1013.2 hPa | 0 mm | - | 76 W/m² | - |
| 1787785000 | 37.78° C | 42% | 1013 hPa | 0 mm | - | 248 W/m² | - |
| 1787784700 | 38.89° C | 40% | 1013 hPa | 0 mm | - | 277 W/m² | - |
| 1787784399 | 38.33° C | 41% | 1013.1 hPa | 0 mm | - | 295 W/m² | - |
| 1787784098 | 38.33° C | 41% | 1013.4 hPa | 0 mm | - | 302 W/m² | - |
| 1787783796 | 38.89° C | 41% | 1013.5 hPa | 0 mm | - | 326 W/m² | - |
* Rain latest hour (hover to see other rain measurements)
** Current wind speed in m/s (hover to see current wind gust speed)